Weather History for Durango, CO

Change the Weather History Date:

Monday, March 11, 2013

  Actual Average Record
Temperature  
Mean Temperature 37 °F 36 °F  
Max Temperature 52 °F 51 °F 72 °F (1972)
Min Temperature 22 °F 22 °F 12 °F (1988)
Degree Days  
Heating Degree Days 28 29  
Month to date heating degree days 316 334  
Since 1 July heating degree days 5662 5509  
Cooling Degree Days 0 0  
Month to date cooling degree days 0 0  
Year to date cooling degree days 0 0  
Moisture  
Dew Point 23 °F    
Average Humidity 62    
Maximum Humidity 88    
Minimum Humidity 35    
Precipitation  
Precipitation 0.00 in 0.04 in 0.73 in (1981)
Month to date precipitation 0.40 0.53  
Year to date precipitation 2.61 2.81  
Sea Level Pressure  
Sea Level Pressure 30.16 in    
Wind  
Wind Speed 6 mph (West)    
Max Wind Speed 22 mph    
Max Gust Speed 26 mph    
Visibility 10 miles    
Events      
T = Trace of Precipitation, MM = Missing Value Source: NWS Daily Summary

Daily Weather History Graph

Daily Weather History Graph

Search for Another Location

Airport:

Trip Planner

Search our weather history database for the weather conditions in past years. The results will help you decide how hot, cold, wet, or windy it might be!

Date:

Astronomy

Mar. 11, 2013 Rise Set
Actual Time 7:27 AM MDT 7:14 PM MDT
Civil Twilight 7:01 AM MDT 7:40 PM MDT
Nautical Twilight 6:31 AM MDT 8:11 PM MDT
Astronomical Twilight 6:01 AM MDT 8:41 PM MDT
Moon 7:03 AM MDT (3/11) 7:28 PM MDT (3/11)
Length of Visible Light 12h 39m
Length of Day
11h 47m
Waning Crescent, 0% of the Moon is Illuminated
Mar 11
Waning Crescent
Mar 11
New
Mar 19
First Quarter
Mar 27
Full
Apr 2
Last Quarter

Hourly Weather History & Observations

Time (MDT) Temp. Windchill Dew Point Humidity Pressure Visibility Wind Dir Wind Speed Gust Speed Precip Events Conditions
12:53 AM 28.9 °F 21.1 °F 21.9 °F 75% 30.23 in 10.0 mi NNE 8.1 mph - N/A   Clear
1:53 AM 28.0 °F 24.2 °F 21.9 °F 78% 30.22 in 10.0 mi North 3.5 mph - N/A   Clear
2:53 AM 25.0 °F - 21.0 °F 85% 30.23 in 10.0 mi Calm Calm - N/A   Clear
3:53 AM 25.0 °F 19.3 °F 19.9 °F 81% 30.20 in 10.0 mi North 4.6 mph - N/A   Clear
4:53 AM 24.1 °F 18.2 °F 19.9 °F 84% 30.18 in 10.0 mi NNE 4.6 mph - N/A   Clear
5:53 AM 23.0 °F - 19.0 °F 85% 30.19 in 10.0 mi Calm Calm - N/A   Clear
6:53 AM 23.0 °F - 19.9 °F 88% 30.20 in 10.0 mi Calm Calm - N/A   Clear
7:53 AM 23.0 °F 17.0 °F 18.0 °F 81% 30.24 in 10.0 mi North 4.6 mph - N/A   Clear
8:53 AM 27.0 °F - 19.9 °F 75% 30.25 in 10.0 mi Calm Calm - N/A   Clear
9:53 AM 30.0 °F - 24.1 °F 79% 30.25 in 10.0 mi Calm Calm - N/A   Clear
10:53 AM 34.0 °F - 23.0 °F 64% 30.23 in 10.0 mi Calm Calm - N/A   Clear
11:53 AM 37.0 °F - 21.9 °F 54% 30.21 in 10.0 mi Calm Calm - N/A   Clear
12:53 PM 42.1 °F - 24.1 °F 49% 30.16 in 10.0 mi Calm Calm - N/A   Clear
1:53 PM 44.1 °F - 25.0 °F 47% 30.14 in 10.0 mi Calm Calm - N/A   Clear
2:53 PM 48.9 °F - 27.0 °F 43% 30.08 in 10.0 mi SW 3.5 mph - N/A   Clear
3:53 PM 52.0 °F - 28.0 °F 40% 30.04 in 10.0 mi WSW 16.1 mph 21.9 mph N/A   Clear
4:53 PM 51.1 °F - 25.0 °F 36% 30.03 in 10.0 mi WSW 16.1 mph 25.3 mph N/A   Clear
5:53 PM 50.0 °F - 25.0 °F 38% 30.04 in 10.0 mi West 16.1 mph 24.2 mph N/A   Clear
6:53 PM 46.9 °F - 23.0 °F 39% 30.07 in 10.0 mi West 17.3 mph - N/A   Clear
7:53 PM 43.0 °F 37.2 °F 24.1 °F 47% 30.11 in 10.0 mi WSW 10.4 mph - N/A   Clear
8:53 PM 42.1 °F 36.1 °F 23.0 °F 47% 30.11 in 10.0 mi West 10.4 mph - N/A   Clear
9:53 PM 39.0 °F 34.8 °F 23.0 °F 53% 30.13 in 10.0 mi WSW 5.8 mph - N/A   Clear
10:53 PM 36.0 °F 31.1 °F 23.0 °F 59% 30.14 in 10.0 mi SSW 5.8 mph - N/A   Clear
11:53 PM 35.1 °F 30.1 °F 21.9 °F 59% 30.14 in 10.0 mi SSE 5.8 mph - N/A   Clear